Location: Hains Lake
(37.8540°N, 99.8578°W)
Time: 22:25:42
(UTC+00:00)

Vanguard 2 Rocket - Pass Details

Date: 19 April 2021
Orbit: 553 x 3326 km, 32.9° (Epoch: 05 May)

Event Time Altitude Azimuth Distance (km) Brightness Sun altitude
Rises 01:08:10 0° 280° (W) 7,309 14.9 1.1°
Reaches altitude 10° 01:13:24 10° 277° (W) 6,194 13.3 0.1°
Maximum altitude 01:31:32 56° 206° (SSW) 2,871 9.5 -3.3°
Drops below altitude 10° 01:43:01 10° 132° (SE) 4,082 9.7 -5.5°
Enters shadow 01:44:42 - 129° (SE) 4,498 9.8 -5.8°
Sets 01:45:43 0° 127° (SE) 4,762 - -6.0°
